Regional Weather Roundup
Issued by NWS

Home | Current Version | Previous Version | Text Only | Print | Product List | Glossary Off
Versions: 1 2 3 4 5 6 7 8 9 10 11 12 13 14 15 16 17 18 19 20 21 22 23 24 25 26 27 28 29 30 31 32 33 34 35 36 37 38 39 40 41 42 43 44 45 46 47 48 49 50

000
ASUS43 KMPX 271001
RWRMN
WEATHER ROUNDUP FOR MINNESOTA
NATIONAL WEATHER SERVICE TWIN CITIES/CHANHASSEN MN
500 AM CDT FRI MAR 27 2015


NOTE: "FAIR" INDICATES FEW OR NO CLOUDS BELOW 12,000 FEET WITH NO
SIGNIFICANT WEATHER AND/OR OBSTRUCTIONS TO VISIBILITY. N/A MEANS
CURRENT SKY AND/OR WEATHER CONDITIONS ARE NOT AVAILABLE.

MNZ060>063-068>070-271100-
   Twin Cities Metro

CITY           SKY/WX    TMP DP  RH WIND       PRES   REMARKS
TWIN CITIES    CLEAR     20   3  48 N7        30.26S WCI  11
ST PAUL        CLEAR     20   4  50 N7        30.27S WCI  11
CRYSTAL        CLEAR     19   4  51 N3        30.25S
BLAINE         CLEAR     18   7  62 N3        30.25S
LAKEVILLE      CLEAR     18   3  53 N3        30.24S
EDEN PRAIRIE   CLEAR     20   4  50 N5        30.24S WCI  13
SOUTH ST PAUL  CLEAR     21   4  48 N3        30.26R
LAKE ELMO      FAIR      19   7  58 N5        30.26R WCI  13
$$
MNZ001>005-007-008-013>017-022>024-027-028-271100-
   Northwest Minnesota

CITY           SKY/WX    TMP DP  RH WIND       PRES   REMARKS
BEMIDJI        CLEAR      3  -1  81 CALM      30.25R
HALLOCK        CLEAR     12   9  85 CALM      30.27S
ROSEAU         FAIR      14   9  79 CALM      30.27F
WARROAD        CLEAR     10   9  92 CALM      30.27F
THIEF RVR FALL CLEAR     16  12  86 CALM      30.27S
CROOKSTON      CLEAR     12   9  85 CALM      30.29F
FOSSTON        CLEAR      7   3  85 CALM      30.27S
DETROIT LAKES  CLEAR     12  10  92 CALM      30.27R
MOORHEAD       CLEAR     14  12  92 CALM      30.29F
PARK RAPIDS    CLEAR      8   1  73 CALM      30.24R
MAHNOMEN       FAIR      12   9  88 CALM      30.26S
$$
MNZ006-009>011-018-025>026-271100-
   North Central Minnesota

CITY           SKY/WX    TMP DP  RH WIND       PRES   REMARKS
BAUDETTE       CLEAR     10   5  80 CALM      30.26R
FLAG ISLAND    CLEAR      9   5  85 CALM      30.26S
INTL FALLS     CLEAR      5   1  83 CALM      30.25S
WASKISH        CLEAR      7   3  85 CALM      30.27R
BIG FORK       CLEAR      3   1  92 CALM      30.24S
LONGVILLE      CLEAR      9   5  85 CALM      30.24S
GRAND RAPIDS   CLEAR     10   1  67 CALM      30.23S
CRANE LAKE     CLEAR      1   0  92 CALM      30.28S
ORR            CLEAR      1  -2  85 CALM      30.21F
COOK           CLEAR      3   0  85 CALM      30.24S
WALKER         FAIR       8   1  72 W3        30.24S
$$
MNZ012-019>021-037-271100-
   Northeast Minnesota

CITY           SKY/WX    TMP DP  RH WIND       PRES   REMARKS
DULUTH         CLEAR     12   3  67 N7        30.21S WCI   1
ELY            CLEAR      1   0  92 CALM      30.23R
HIBBING        FAIR       3  -2  79 NW3       30.24R
EVELETH        CLEAR      7   3  85 CALM      30.23F
DULUTH HARBOR  CLEAR     21  10  63 N15       30.28S WCI   8
TWO HARBORS    CLEAR     16   5  62 CALM      30.23S
SILVER BAY     CLEAR     12   3  67 CALM      30.23R
GRAND MARAIS     N/A      9   2  73 N5        30.28R WCI   1
G MARAIS ARPRT CLEAR      1  -6  71 NW8       30.17S WCI -12
$$
MNZ029>031-032-039>041-046>048-054>057-064-271100-
   West Central Minnesota

CITY           SKY/WX    TMP DP  RH WIND       PRES   REMARKS
FERGUS FALLS   CLEAR     12   9  85 CALM      30.31S
WHEATON        CLEAR     14  10  85 CALM      30.31R
MORRIS         CLEAR     14  10  85 NW6       30.27R WCI   5
ALEXANDRIA     CLEAR     14   8  77 NE3       30.26R
ELBOW LAKE     FAIR      13  10  90 CALM      30.27R
WADENA         CLEAR      9   3  78 NW3       30.25R
GLENWOOD       CLEAR     16   7  67 N5        30.26R WCI   9
APPLETON       CLEAR     16  12  86 NW3       30.28R
BENSON         CLEAR     12   9  85 CALM      30.27R
ORTONVILLE     CLEAR     18  12  79 CALM      30.28R
MADISON        CLEAR     18  12  79 NW5       30.29R WCI  11
WILLMAR        FAIR      16   7  67 N5        30.27R WCI   9
$$
MNZ033>034-036-042>043-049>051-058-059-271100-
   Central Minnesota

CITY           SKY/WX    TMP DP  RH WIND       PRES   REMARKS
ST CLOUD       CLEAR     13   7  77 CALM      30.25S
SAUK CENTRE    FAIR      12   6  74 NW3       30.26R
PAYNESVILLE    CLEAR      8   2  79 CALM      30.26R
AITKIN         CLEAR     12   3  67 CALM      30.23F
PINE RIVER     CLEAR      9   5  85 CALM      30.28R
BRAINERD       CLEAR     11   5  77 CALM      30.25S
STAPLES        CLEAR     10   3  72 CALM      30.25R
LONG PRAIRIE   FAIR      14   5  67 NW3       30.26R
LITTLE FALLS   CLEAR     12   3  67 CALM      30.26R
LITCHFIELD     CLEAR     16   7  67 CALM      30.26S
MAPLE LAKE     CLEAR     16  10  79 NW3       30.26S
$$
MNZ037-044-045-052-053-271100-
   East Central Minnesota

CITY           SKY/WX    TMP DP  RH WIND       PRES   REMARKS
PRINCETON      FAIR      16   7  67 CALM      30.25S
MORA           CLEAR     14   5  67 N3        30.27S
CAMBRIDGE      CLEAR     18   5  57 CALM      30.25R
RUSH CITY      CLEAR     15   5  64 CALM      30.26S
MOOSE LAKE     FAIR      14   1  57 CALM      30.24S
HINCKLEY         N/A     16   3  57 N3        30.26R
CLOQUET        FAIR      10   1  67 N7        30.23S WCI   0
MCGREGOR       CLEAR     12   7  79 CALM      30.26R
$$
MNZ071>073-080-081-089-090-097-098-271100-
   Southwest Minnesota

CITY           SKY/WX    TMP DP  RH WIND       PRES   REMARKS
MONTEVIDEO     FAIR      16  10  79 N5        30.28S WCI   9
GRANITE FALLS  CLEAR     16  13  86 CALM      30.29R
CANBY          CLEAR     16  12  84 W3        30.28S
MARSHALL       CLEAR     16   9  73 NW8       30.26S WCI   5
REDWOOD FALLS  CLEAR     21   8  57 N8        30.26S WCI  11
OLIVIA         CLEAR     18  10  73 N6        30.25S WCI   9
PIPESTONE      CLEAR     18  12  79 CALM      30.22F
WINDOM         CLEAR     14  10  85 NW7       30.23S WCI   4
WORTHINGTON    CLEAR     14   9  79 N7        30.23S WCI   4
JACKSON        CLEAR     19  12  73 N5        30.22S WCI  13
TRACY          CLEAR     18  14  84 NW6       30.25S WCI  10
SLAYTON        CLEAR     17  12  81 CALM      30.24R
$$
MNZ065>067-074>077-082>085-091>093-271100-
   South Central Minnesota

CITY           SKY/WX    TMP DP  RH WIND       PRES   REMARKS
MANKATO        CLEAR     18   9  68 CALM      30.24R
NEW ULM        CLEAR     19   9  63 CALM      30.25R
ST JAMES       CLEAR     19  14  79 NW5       30.25S WCI  13
FAIRMONT       CLEAR     19  12  73 NW7       30.21S WCI  10
GLENCOE        CLEAR     16  10  77 N3        30.25S
FARIBAULT      CLEAR     10   7  85 CALM      30.23S
OWATONNA       CLEAR     12   7  79 CALM      30.22S
WASECA         CLEAR     16   9  73 VRB7      30.24S WCI   6
ALBERT LEA     FAIR      18  12  79 N5        30.21S WCI  11
$$
MNZ078>079-086>088-094>096-271100-
   Southeast Minnesota

CITY           SKY/WX    TMP DP  RH WIND       PRES   REMARKS
ROCHESTER      CLEAR     17   5  59 N6        30.20R WCI   9
RED WING       CLEAR     19   7  58 NE3       30.23S
STANTON        CLEAR     13   7  77 CALM      30.23S
DODGE CENTER   PTCLDY    18   7  62 N6        30.19F WCI   9
WINONA         CLEAR     23  12  63 CALM      30.24R
AUSTIN         CLEAR     16   7  67 N3        30.20S
PRESTON        CLEAR     17   8  67 NE3       30.19S
$$
ABBREVIATIONS USED IN REMARKS
   TC - TEMPERATURES IN CELSIUS
  WCI - WIND CHILL INDEX
   HX - HEAT INDEX
  VSB - VISIBILITY
$$



USA.gov is the U.S. government's official web portal to all federal, state and local government web resources and services.